Weather History for KWWD - May, 2013

Change the Weather History Date:

Saturday, May 4, 2013

  Actual Average Record
Temperature  
Mean Temperature 51 °F -  
Max Temperature 60 °F 65 °F 84 °F (2001)
Min Temperature 42 °F 49 °F 39 °F (2002)
Degree Days  
Heating Degree Days 14    
Growing Degree Days 1 (Base 50)    
Moisture  
Dew Point 41 °F    
Average Humidity 70    
Maximum Humidity 93    
Minimum Humidity 51    
Precipitation  
Precipitation 0.00 in - - ()
Sea Level Pressure  
Sea Level Pressure 30.28 in    
Wind  
Wind Speed 10 mph (NE)    
Max Wind Speed 18 mph    
Max Gust Speed 26 mph    
Visibility 10 miles    
Events      
Averages and records for this station are not official NWS values.
T = Trace of Precipitation, MM = Missing Value Source: NWS Daily Summary

Daily Weather History Graph

Daily Weather History Graph

Search for Another Location

Airport or City:

Trip Planner

Search our weather history database for the weather conditions in past years. The results will help you decide how hot, cold, wet, or windy it might be!

Date:

Astronomy

May. 04, 2013 Rise Set
Actual Time 5:57 AM EDT 7:55 PM EDT
Civil Twilight 5:28 AM EDT 8:24 PM EDT
Nautical Twilight 4:53 AM EDT 9:00 PM EDT
Astronomical Twilight 4:15 AM EDT 9:38 PM EDT
Moon 2:52 AM EDT (5/4) 2:53 PM EDT (5/4)
Length of Visible Light 14h 55m
Length of Day
13h 57m
Waning Crescent, 27% of the Moon is Illuminated
May 4
Waning Crescent
May 9
New
May 18
First Quarter
May 25
Full
May 31
Last Quarter

Hourly Weather History & Observations

Time (EDT) Temp. Windchill Dew Point Humidity Pressure Visibility Wind Dir Wind Speed Gust Speed Precip Events Conditions
12:15 AM 48.2 °F - 42.8 °F 82% 30.35 in 10.0 mi East 10.4 mph - N/A   Overcast
12:35 AM 48.2 °F - 42.8 °F 82% 30.35 in 10.0 mi ENE 9.2 mph - N/A   Overcast
12:55 AM 48.2 °F - 42.8 °F 82% 30.34 in 10.0 mi NE 12.7 mph - N/A   Overcast
1:15 AM 48.2 °F - 42.8 °F 82% 30.33 in 10.0 mi ENE 8.1 mph - N/A   Overcast
1:35 AM 48.2 °F - 41.0 °F 76% 30.32 in 10.0 mi NE 11.5 mph 17.3 mph N/A   Overcast
1:55 AM 46.4 °F 42.9 °F 41.0 °F 81% 30.31 in 10.0 mi NE 6.9 mph - N/A   Mostly Cloudy
2:15 AM 46.4 °F 43.5 °F 41.0 °F 81% 30.30 in 10.0 mi NE 5.8 mph - N/A   Partly Cloudy
2:35 AM 46.4 °F 43.5 °F 41.0 °F 81% 30.29 in 10.0 mi ENE 5.8 mph - N/A   Partly Cloudy
2:55 AM 46.4 °F 41.9 °F 41.0 °F 81% 30.29 in 10.0 mi NE 9.2 mph - N/A   Scattered Clouds
3:15 AM 46.4 °F 43.5 °F 41.0 °F 81% 30.29 in 10.0 mi NE 5.8 mph - N/A   Partly Cloudy
3:35 AM 46.4 °F 44.3 °F 39.2 °F 76% 30.29 in 10.0 mi NNE 4.6 mph - N/A   Clear
3:55 AM 44.6 °F 42.2 °F 39.2 °F 81% 30.28 in 10.0 mi North 4.6 mph - N/A   Clear
4:15 AM 44.6 °F 42.2 °F 39.2 °F 81% 30.28 in 10.0 mi North 4.6 mph - N/A   Clear
4:35 AM 44.6 °F 42.2 °F 39.2 °F 81% 30.28 in 10.0 mi North 4.6 mph - N/A   Clear
4:55 AM 42.8 °F 40.1 °F 39.2 °F 87% 30.28 in 10.0 mi North 4.6 mph - N/A   Clear
5:15 AM 42.8 °F 40.1 °F 39.2 °F 87% 30.28 in 10.0 mi North 4.6 mph - N/A   Clear
5:35 AM 42.8 °F 41.1 °F 39.2 °F 87% 30.28 in 10.0 mi North 3.5 mph - N/A   Clear
5:55 AM 42.8 °F 41.1 °F 39.2 °F 87% 30.28 in 10.0 mi North 3.5 mph - N/A   Clear
6:15 AM 42.8 °F 41.1 °F 39.2 °F 87% 30.29 in 10.0 mi North 3.5 mph - N/A   Clear
6:35 AM 42.8 °F 41.1 °F 39.2 °F 87% 30.29 in 10.0 mi North 3.5 mph - N/A   Clear
6:55 AM 44.6 °F 42.2 °F 41.0 °F 87% 30.29 in 10.0 mi North 4.6 mph - N/A   Clear
7:15 AM 44.6 °F 41.4 °F 42.8 °F 93% 30.29 in 10.0 mi North 5.8 mph - N/A   Clear
7:35 AM 46.4 °F 43.5 °F 42.8 °F 87% 30.29 in 10.0 mi NNE 5.8 mph - N/A   Clear
7:55 AM 48.2 °F - 42.8 °F 82% 30.30 in 10.0 mi NNE 5.8 mph - N/A   Clear
8:15 AM 50.0 °F - 44.6 °F 82% 30.30 in 10.0 mi NE 4.6 mph - N/A   Clear
8:35 AM 51.8 °F - 44.6 °F 76% 30.30 in 10.0 mi ENE 11.5 mph - N/A   Partly Cloudy
8:55 AM 53.6 °F - 44.6 °F 72% 30.30 in 10.0 mi NE 16.1 mph 20.7 mph N/A   Partly Cloudy
9:15 AM 55.4 °F - 44.6 °F 67% 30.29 in 10.0 mi ENE 15.0 mph 20.7 mph N/A   Clear
9:35 AM 55.4 °F - 44.6 °F 67% 30.29 in 10.0 mi NE 17.3 mph 23.0 mph N/A   Clear
9:55 AM 55.4 °F - 42.8 °F 63% 30.29 in 10.0 mi ENE 13.8 mph 24.2 mph N/A   Clear
10:15 AM 55.4 °F - 42.8 °F 63% 30.29 in 10.0 mi ENE 16.1 mph 21.9 mph N/A   Clear
10:35 AM 57.2 °F - 44.6 °F 63% 30.29 in 10.0 mi ENE 15.0 mph 21.9 mph N/A   Clear
10:55 AM 57.2 °F - 42.8 °F 59% 30.29 in - ENE 13.8 mph 23.0 mph N/A   Clear
11:15 AM 57.2 °F - 42.8 °F 59% 30.29 in - ENE 16.1 mph 21.9 mph N/A   Clear
11:35 AM 57.2 °F - 41.0 °F 55% 30.29 in 10.0 mi NE 11.5 mph 23.0 mph N/A   Clear
11:55 AM 59.0 °F - 42.8 °F 55% 30.29 in - ENE 13.8 mph 21.9 mph N/A   Clear
12:15 PM 59.0 °F - 42.8 °F 55% 30.28 in - ENE 12.7 mph 19.6 mph N/A   Clear
12:35 PM 60.8 °F - 44.6 °F 55% 30.28 in - East 16.1 mph - N/A   Clear
12:55 PM 59.0 °F - 42.8 °F 55% 30.28 in - ENE 16.1 mph 23.0 mph N/A   Clear
1:15 PM 57.2 °F - 42.8 °F 59% 30.28 in - ENE 16.1 mph 23.0 mph N/A   Clear
1:35 PM 57.2 °F - 42.8 °F 59% 30.28 in - ENE 16.1 mph 21.9 mph N/A   Clear
1:55 PM 57.2 °F - 42.8 °F 59% 30.28 in - ENE 13.8 mph 21.9 mph N/A   Clear
2:15 PM 57.2 °F - 42.8 °F 59% 30.28 in 10.0 mi ENE 12.7 mph 23.0 mph N/A   Clear
2:35 PM 57.2 °F - 42.8 °F 59% 30.28 in - ENE 18.4 mph 26.5 mph N/A   Clear
2:55 PM 57.2 °F - 41.0 °F 55% 30.27 in 10.0 mi East 15.0 mph 21.9 mph N/A   Clear
3:15 PM 57.2 °F - 39.2 °F 51% 30.27 in 10.0 mi ENE 17.3 mph 26.5 mph N/A   Clear
3:35 PM 57.2 °F - 39.2 °F 51% 30.27 in 10.0 mi ENE 18.4 mph 24.2 mph N/A   Clear
3:55 PM 55.4 °F - 39.2 °F 54% 30.26 in 10.0 mi ENE 17.3 mph 25.3 mph N/A   Clear
4:15 PM 55.4 °F - 39.2 °F 54% 30.26 in 10.0 mi ENE 16.1 mph 25.3 mph N/A   Clear
4:35 PM 55.4 °F - 41.0 °F 58% 30.26 in 10.0 mi ENE 12.7 mph 19.6 mph N/A   Clear
4:55 PM 55.4 °F - 39.2 °F 54% 30.26 in 10.0 mi ENE 18.4 mph 26.5 mph N/A   Clear
5:15 PM 55.4 °F - 39.2 °F 54% 30.25 in 10.0 mi ENE 18.4 mph 21.9 mph N/A   Clear
5:35 PM 53.6 °F - 39.2 °F 58% 30.25 in 10.0 mi ENE 13.8 mph 21.9 mph N/A   Clear
5:55 PM 53.6 °F - 39.2 °F 58% 30.25 in 10.0 mi ENE 12.7 mph 19.6 mph N/A   Clear
6:15 PM 53.6 °F - 39.2 °F 58% 30.24 in 10.0 mi East 10.4 mph 21.9 mph N/A   Clear
6:35 PM 51.8 °F - 39.2 °F 62% 30.24 in 10.0 mi ENE 16.1 mph 19.6 mph N/A   Clear
6:55 PM 51.8 °F - 39.2 °F 62% 30.24 in 10.0 mi NE 17.3 mph 20.7 mph N/A   Clear
7:15 PM 51.8 °F - 39.2 °F 62% 30.24 in 10.0 mi ENE 10.4 mph 17.3 mph N/A   Clear
7:35 PM 50.0 °F - 39.2 °F 66% 30.24 in 10.0 mi NE 10.4 mph - N/A   Clear
7:55 PM 48.2 °F - 37.4 °F 66% 30.24 in 10.0 mi ENE 10.4 mph 17.3 mph N/A   Clear
8:15 PM 48.2 °F - 39.2 °F 71% 30.24 in 10.0 mi ENE 11.5 mph - N/A   Clear
8:35 PM 48.2 °F - 39.2 °F 71% 30.24 in 10.0 mi ENE 11.5 mph 17.3 mph N/A   Clear
8:55 PM 48.2 °F - 37.4 °F 66% 30.25 in 10.0 mi ENE 10.4 mph 18.4 mph N/A   Clear
9:15 PM 48.2 °F - 39.2 °F 71% 30.25 in 10.0 mi ENE 12.7 mph 19.6 mph N/A   Clear
9:35 PM 48.2 °F - 39.2 °F 71% 30.26 in 10.0 mi ENE 9.2 mph 17.3 mph N/A   Clear
9:55 PM 46.4 °F 40.7 °F 37.4 °F 71% 30.26 in 10.0 mi ENE 12.7 mph 19.6 mph N/A   Clear
10:15 PM 46.4 °F 41.1 °F 37.4 °F 71% 30.26 in 10.0 mi ENE 11.5 mph - N/A   Clear
10:35 PM 46.4 °F 41.1 °F 39.2 °F 76% 30.26 in 10.0 mi ENE 11.5 mph 16.1 mph N/A   Scattered Clouds
10:55 PM 46.4 °F 41.1 °F 39.2 °F 76% 30.26 in 10.0 mi ENE 11.5 mph 19.6 mph N/A   Mostly Cloudy
11:15 PM 46.4 °F 40.7 °F 37.4 °F 71% 30.26 in 10.0 mi East 12.7 mph 16.1 mph N/A   Mostly Cloudy
11:35 PM 46.4 °F 41.1 °F 39.2 °F 76% 30.25 in 10.0 mi ENE 11.5 mph 16.1 mph N/A   Mostly Cloudy
11:55 PM 46.4 °F 41.5 °F 37.4 °F 71% 30.26 in 10.0 mi ENE 10.4 mph 18.4 mph N/A   Mostly Cloudy